Home   Weather   Mendoza   Past weeks

Flag for Argentina Past Weather in Mendoza, Mendoza, Argentina — Yesterday and Last 2 Weeks

Now
63 °F

Partly sunny.


Feels Like: 63 °F
Forecast: 55 / 64 °F
Wind: 3 mph from North

Location: Mendoza Aerodrome

Current Time: Apr 24, 2017 at 2:37:40 pm

Latest Report: Apr 24, 2017 at 2:00 pm


Visibility: N/A

Pressure: 29.89 "Hg (27.31 "Hg at 767m altitude)

Humidity: 73%

Dew Point: 54 °F

Location of MendozaLocation

Past Weather in Mendoza — Graph

°F

Mendoza Temperature Yesterday

Maximum temperature yesterday: 72 °F (at 4:00 pm)
Minimum temperature yesterday: 57 °F (at 1:00 am)
Average temperature yesterday: 63 °F

High & Low Weather Summary for the Past Weeks

 TemperatureHumidityPressure
High77 °F (Apr 10, 5:00 pm)100% (Apr 16, 7:00 pm)30.27 "Hg (Apr 16, 7:00 pm)
Low43 °F (Apr 10, 5:00 am)16% (Apr 10, 4:00 pm)29.83 "Hg (Apr 23, 4:00 pm)
Average61 °F73%30.04 "Hg
* Reported Apr 9 1:00 pm — Apr 24 1:00 pm, Mendoza, Weather by CustomWeather, © 2017

Note: Actual official high and low records may vary slightly from our data, if they occured in-between our weather recording intervals... More about our weather records

Advertising

Mendoza Weather History for the Previous 24 Hours

Scroll right to see more
 ConditionsComfort  
Time TempWeatherWind HumidityBarometerVisibility
1:00 pm
Mon, Apr 24
63 °FPartly sunny.No wind73%29.92 "HgN/A
12:00 pm63 °FPartly sunny.No wind73%29.95 "HgN/A
11:00 am59 °FOvercast.3 mph77%29.98 "HgN/A
10:00 am57 °FOvercast.5 mph88%29.98 "HgN/A
9:00 am57 °FDrizzle. Cloudy.6 mph82%29.98 "Hg4 mi
8:00 am57 °FPassing clouds.3 mph82%29.98 "HgN/A
7:00 am57 °FLow clouds.6 mph88%29.98 "HgN/A
6:00 am57 °FLow clouds.3 mph88%29.98 "HgN/A
5:00 am59 °FOvercast.3 mph77%29.98 "HgN/A
4:00 am59 °FOvercast.No wind77%29.98 "HgN/A
3:00 am59 °FOvercast.2 mph77%29.98 "HgN/A
2:00 am59 °FDrizzle. Overcast.3 mph77%29.98 "HgN/A
1:00 am59 °FLight rain. Passing clouds.7 mph72%30.01 "HgN/A
12:00 am59 °FPassing clouds.9 mph72%30.01 "HgN/A
11:00 pm
Sun, Apr 23
63 °FPassing clouds.9 mph73%29.98 "HgN/A
10:00 pm64 °FPassing clouds.9 mph73%29.95 "HgN/A
9:00 pm66 °FPassing clouds.3 mph68%29.92 "HgN/A
8:00 pm66 °FClear.2 mph73%29.89 "Hg10 mi
7:00 pm70 °FSunny.No wind69%29.86 "Hg10 mi
6:00 pm70 °FScattered clouds.2 mph60%29.86 "HgN/A
5:00 pm72 °FScattered clouds.6 mph57%29.86 "HgN/A
4:00 pm72 °FSunny.3 mph53%29.83 "Hg10 mi
3:00 pm70 °FMild.N/A57%29.86 "HgN/A
2:00 pm70 °FSunny.5 mph60%29.89 "Hg10 mi
Weather by CustomWeather, © 2017

See weather overviewHow to use our weather pages